Volver al catálogo

ONEWEB-0403

ActivoComunicacionesPO
NORAD 50483·PAYLOAD·🇬🇧 United Kingdom

Lanzado Dec 27, 2021 desde Baikonur Cosmodrome

Loading…

Próximos Pases (próximas 24 horas)

TLE

ActualizadoSource: CelesTrak SupGP

Época: Sep 14, 2026, 19:30 UTC

1 50483C 21132Q   26257.81265463 -.00014984  00000+0 -38048-1 0  2574
2 50483  87.9162 317.6516 0002057 103.0497 296.3935 13.18709332    17

Sigue ONEWEB-0403 en tiempo real con AllMySat

Download on the App Store